Pittsfield, IL

6:38 PM CDT on September 21, 2017 (GMT -0500)
Pittsfield Penstone Municipal

Weather History for KPPQ - April, 2014

Change the Weather History Date:

Friday, April 4, 2014

  Actual Average (KUIN) Record (KUIN)
Temperature  
Mean Temperature 48 °F -  
Max Temperature 58 °F 55 °F 86 °F (1942)
Min Temperature 38 °F 37 °F 20 °F (2002)
Degree Days  
Heating Degree Days 17    
Moisture  
Dew Point 34 °F    
Average Humidity 69    
Maximum Humidity 89    
Minimum Humidity 59    
Precipitation  
Precipitation 0.00 in - - ()
Sea Level Pressure  
Sea Level Pressure 29.87 in    
Wind  
Wind Speed 16 mph (West)    
Max Wind Speed 24 mph    
Max Gust Speed 37 mph    
Visibility 10 miles    
Events      
Averages and records for this station are not official NWS values.
T = Trace of Precipitation, MM = Missing Value Source: NWS Daily Summary

Daily Weather History Graph

Daily Weather History Graph

Search for Another Location

Airport or City:

Trip Planner

Search our weather history database for the weather conditions in past years. The results will help you decide how hot, cold, wet, or windy it might be!

Date:

Astronomy

Apr. 04, 2014 Rise Set
Actual Time 6:42 AM CDT 7:30 PM CDT
Civil Twilight 6:15 AM CDT 7:57 PM CDT
Nautical Twilight 5:43 AM CDT 8:29 PM CDT
Astronomical Twilight 5:09 AM CDT 9:03 PM CDT
Moon 10:00 AM CDT (4/4) No Moon Set
Length of Visible Light 13h 42m
Length of Day
12h 47m
Waxing Crescent, 25% of the Moon is Illuminated
Apr 4
Waxing Crescent
Apr 7
First Quarter
Apr 15
Full
Apr 22
Last Quarter
Apr 29
New

Hourly Weather History & Observations

Time (CDT) Temp. Windchill Dew Point Humidity Pressure Visibility Wind Dir Wind Speed Gust Speed Precip Events Conditions
12:15 AM 58.8 °F - 53.8 °F 83% 29.61 in 10.0 mi SSW 13.8 mph 19.6 mph N/A   Mostly Cloudy
12:32 AM 58.1 °F - 54.0 °F 86% 29.63 in 10.0 mi South 12.7 mph 18.4 mph N/A   Scattered Clouds
1:17 AM 58.1 °F - 54.1 °F 87% 29.60 in 10.0 mi South 6.9 mph - N/A   Scattered Clouds
1:37 AM 57.7 °F - 54.1 °F 88% 29.59 in 10.0 mi South 8.1 mph - N/A   Scattered Clouds
2:15 AM 57.2 °F - 54.0 °F 89% 29.57 in 10.0 mi South 8.1 mph - N/A   Scattered Clouds
2:35 AM 57.2 °F - 54.0 °F 89% 29.56 in 10.0 mi SSW 9.2 mph - N/A   Scattered Clouds
2:55 AM 55.9 °F - 51.4 °F 85% 29.56 in 7.0 mi WSW 18.4 mph 27.6 mph N/A   Overcast
3:15 AM 51.8 °F - 48.0 °F 87% 29.58 in 5.0 mi WSW 24.2 mph 34.5 mph N/A   Overcast
3:35 AM 51.1 °F - 45.5 °F 81% 29.60 in 10.0 mi West 18.4 mph 24.2 mph N/A   Overcast
3:55 AM 49.3 °F - 44.6 °F 84% 29.62 in 10.0 mi West 20.7 mph 29.9 mph N/A   Overcast
4:15 AM 47.1 °F - 42.4 °F 84% 29.63 in 10.0 mi West 20.7 mph 25.3 mph N/A   Overcast
4:35 AM 45.9 °F 38.0 °F 40.5 °F 81% 29.65 in 10.0 mi WSW 20.7 mph 29.9 mph N/A   Overcast
4:55 AM 44.6 °F 36.1 °F 39.0 °F 81% 29.66 in 10.0 mi WSW 21.9 mph 32.2 mph N/A   Overcast
5:15 AM 44.6 °F 35.9 °F 37.8 °F 77% 29.66 in 10.0 mi WSW 23.0 mph 32.2 mph N/A   Overcast
5:35 AM 43.9 °F 35.9 °F 36.7 °F 76% 29.68 in 10.0 mi West 18.4 mph 31.1 mph N/A   Overcast
5:55 AM 43.2 °F 35.0 °F 36.0 °F 76% 29.69 in 10.0 mi West 18.4 mph 33.4 mph N/A   Overcast
6:15 AM 41.9 °F 32.6 °F 35.2 °F 77% 29.70 in 10.0 mi West 21.9 mph 32.2 mph N/A   Overcast
6:35 AM 41.2 °F 32.1 °F 34.3 °F 77% 29.71 in 10.0 mi West 19.6 mph 32.2 mph N/A   Overcast
6:55 AM 40.1 °F 29.7 °F 34.0 °F 79% 29.73 in 10.0 mi West 24.2 mph 31.1 mph N/A   Overcast
7:15 AM 40.1 °F 30.7 °F 32.7 °F 75% 29.75 in 10.0 mi West 19.6 mph 32.2 mph N/A   Overcast
7:35 AM 39.6 °F 30.6 °F 32.0 °F 74% 29.75 in 10.0 mi West 17.3 mph 28.8 mph N/A   Overcast
7:55 AM 39.2 °F 29.8 °F 30.4 °F 71% 29.76 in 10.0 mi West 18.4 mph 31.1 mph N/A   Overcast
8:15 AM 38.7 °F 28.3 °F 29.5 °F 70% 29.76 in 10.0 mi West 21.9 mph 36.8 mph N/A   Overcast
8:35 AM 38.5 °F 28.3 °F 29.8 °F 71% 29.77 in 10.0 mi West 20.7 mph 33.4 mph N/A   Overcast
8:55 AM 38.3 °F 27.8 °F 30.2 °F 73% 29.78 in 10.0 mi West 21.9 mph 31.1 mph N/A   Overcast
9:15 AM 38.5 °F 28.6 °F 29.8 °F 71% 29.79 in 10.0 mi West 19.6 mph 33.4 mph N/A   Overcast
9:35 AM 38.3 °F 28.7 °F 29.8 °F 72% 29.80 in 10.0 mi West 18.4 mph 26.5 mph N/A   Overcast
9:55 AM 39.6 °F 30.0 °F 30.6 °F 70% 29.81 in 10.0 mi West 19.6 mph 25.3 mph N/A   Overcast
10:15 AM 40.1 °F 29.7 °F 30.0 °F 67% 29.82 in 10.0 mi West 24.2 mph 32.2 mph N/A   Overcast
10:35 AM 40.1 °F 30.5 °F 29.8 °F 67% 29.84 in 10.0 mi West 20.7 mph 29.9 mph N/A   Overcast
10:55 AM 40.1 °F 31.0 °F 30.2 °F 68% 29.85 in 10.0 mi West 18.4 mph 31.1 mph N/A   Overcast
11:15 AM 40.5 °F 30.2 °F 30.2 °F 67% 29.86 in 10.0 mi West 24.2 mph 32.2 mph N/A   Overcast
11:35 AM 40.3 °F 29.9 °F 29.1 °F 64% 29.87 in 10.0 mi West 24.2 mph 33.4 mph N/A   Overcast
11:55 AM 41.7 °F 32.1 °F 30.2 °F 64% 29.88 in 10.0 mi West 23.0 mph 32.2 mph N/A   Overcast
12:15 PM 41.0 °F 31.9 °F 29.7 °F 64% 29.89 in 10.0 mi West 19.6 mph 29.9 mph N/A   Overcast
12:35 PM 41.2 °F 31.9 °F 29.3 °F 63% 29.90 in 10.0 mi WNW 20.7 mph 31.1 mph N/A   Overcast
1:15 PM 41.9 °F 33.4 °F 30.2 °F 63% 29.91 in 10.0 mi West 18.4 mph 26.5 mph N/A   Overcast
1:35 PM 42.8 °F 33.3 °F 30.2 °F 61% 29.92 in 10.0 mi West 24.2 mph 33.4 mph N/A   Overcast
1:55 PM 43.3 °F 35.0 °F 30.6 °F 61% 29.92 in 10.0 mi WNW 19.6 mph 29.9 mph N/A   Overcast
2:15 PM 43.3 °F 35.2 °F 30.2 °F 60% 29.93 in 10.0 mi West 18.4 mph 31.1 mph N/A   Overcast
2:35 PM 43.2 °F 34.7 °F 30.6 °F 61% 29.93 in 10.0 mi West 19.6 mph 29.9 mph N/A   Overcast
2:55 PM 43.7 °F 34.7 °F 30.4 °F 59% 29.94 in 10.0 mi West 23.0 mph 32.2 mph N/A   Overcast
3:15 PM 43.7 °F 35.0 °F 31.1 °F 61% 29.94 in 10.0 mi West 21.9 mph 31.1 mph N/A   Overcast
3:35 PM 44.6 °F 35.9 °F 32.0 °F 61% 29.95 in 10.0 mi West 23.0 mph 28.8 mph N/A   Overcast
3:55 PM 44.1 °F 37.4 °F 31.3 °F 61% 29.96 in 10.0 mi WNW 13.8 mph 34.5 mph N/A   Overcast
4:15 PM 43.9 °F 35.4 °F 31.1 °F 61% 29.97 in 10.0 mi WNW 20.7 mph 31.1 mph N/A   Overcast
4:35 PM 43.7 °F 35.0 °F 30.4 °F 59% 29.98 in 10.0 mi WNW 21.9 mph 32.2 mph N/A   Overcast
4:55 PM 43.9 °F 35.0 °F 30.6 °F 59% 29.99 in 10.0 mi West 23.0 mph 28.8 mph N/A   Overcast
5:15 PM 43.7 °F 36.3 °F 30.9 °F 61% 30.00 in 10.0 mi West 16.1 mph 27.6 mph N/A   Overcast
5:35 PM 43.7 °F 36.9 °F 30.7 °F 60% 30.01 in 10.0 mi WNW 13.8 mph 24.2 mph N/A   Overcast
5:55 PM 43.3 °F 35.5 °F 31.3 °F 62% 30.02 in 10.0 mi West 17.3 mph 25.3 mph N/A   Overcast
6:15 PM 43.2 °F 37.0 °F 31.1 °F 62% 30.03 in 10.0 mi WNW 11.5 mph 21.9 mph N/A   Overcast
6:35 PM 43.0 °F 35.4 °F 30.0 °F 60% 30.04 in 10.0 mi WNW 16.1 mph 20.7 mph N/A   Overcast
6:55 PM 43.0 °F 36.4 °F 30.2 °F 61% 30.05 in 10.0 mi WNW 12.7 mph 23.0 mph N/A   Overcast
7:15 PM 42.8 °F 35.1 °F 29.8 °F 60% 30.05 in 10.0 mi WNW 16.1 mph 19.6 mph N/A   Overcast
7:35 PM 42.8 °F 37.0 °F 30.0 °F 61% 30.05 in 10.0 mi WNW 10.4 mph 20.7 mph N/A   Overcast
7:55 PM 42.6 °F 36.3 °F 30.0 °F 61% 30.06 in 10.0 mi WNW 11.5 mph 16.1 mph N/A   Overcast
8:15 PM 42.4 °F 36.5 °F 30.2 °F 62% 30.08 in 10.0 mi West 10.4 mph 17.3 mph N/A   Overcast
8:35 PM 42.4 °F 38.1 °F 30.4 °F 62% 30.09 in 10.0 mi West 6.9 mph - N/A   Overcast
8:55 PM 42.3 °F 37.9 °F 30.7 °F 64% 30.10 in 10.0 mi West 6.9 mph - N/A   Overcast
9:15 PM 42.3 °F 37.3 °F 30.6 °F 63% 30.11 in 10.0 mi WNW 8.1 mph - N/A   Overcast
9:35 PM 42.3 °F 36.8 °F 29.1 °F 60% 30.12 in 10.0 mi WNW 9.2 mph 17.3 mph N/A   Overcast
9:55 PM 42.1 °F 37.1 °F 28.9 °F 60% 30.12 in 10.0 mi WNW 8.1 mph 18.4 mph N/A   Overcast
10:15 PM 41.9 °F 35.4 °F 29.3 °F 61% 30.13 in 10.0 mi NW 11.5 mph 19.6 mph N/A   Overcast
10:35 PM 41.5 °F 37.1 °F 29.5 °F 62% 30.13 in 10.0 mi NW 6.9 mph - N/A   Overcast
10:55 PM 41.2 °F 36.0 °F 29.8 °F 64% 30.14 in 10.0 mi NW 8.1 mph - N/A   Overcast
11:15 PM 41.0 °F 35.2 °F 30.0 °F 65% 30.14 in 10.0 mi NW 9.2 mph - N/A   Overcast
11:35 PM 40.6 °F 36.0 °F 30.7 °F 68% 30.14 in 10.0 mi NW 6.9 mph - N/A   Overcast
11:55 PM 40.6 °F 37.5 °F 30.7 °F 68% 30.14 in 10.0 mi NW 4.6 mph - N/A   Overcast